Effective Sunday, March 17, 2024, the National Weather Service National Data Buoy Center will discontinue its Dial-A-Buoy Interactive Voice Response system. For more information, see Service Change Notice 24-06 (PDF).

Station SKTA2 - 9452400 - Skagway, AK Image indicating link to RSS feed of recent meteorological observations for station SKTA2


Conditions at SKTA2 as of
(12:18 pm AKST)
2118 GMT on 02/24/2024:
     

Click on the graph icon in the table below to see a time series plot of the last five days of that observation.

5-day plot - Atmospheric Pressure Atmospheric Pressure (PRES):29.84 in
5-day plot - Air Temperature Air Temperature (ATMP): 30.6 °F
5-day plot - Water Temperature Water Temperature (WTMP): 39.7 °F
NOS Water Level Observation Network Water Level
Previous observations
TIME
(AKST)
5-day plot - Wind Direction
WDIR
 
5-day plot - Wind Speed
WSPD
kts
5-day plot - Wind Gust
GST
kts
5-day plot - Wave Height
WVHT
ft
5-day plot - Dominant Wave Period
DPD
sec
5-day plot - Average Wave Period
APD
sec
5-day plot - Mean Wave Direction
MWD
 
5-day plot - Atmospheric Pressure
PRES
in
5-day plot - Pressure Tendency
PTDY
in
5-day plot - Air Temperature
ATMP
°F
5-day plot - Water Temperature
WTMP
°F
5-day plot - Dew Point
DEWP
°F
5-day plot - Salinity
SAL
psu
5-day plot - Visibility
VIS
nmi
5-day plot - Tide (above MLLW)
TIDE
ft
2024-02-24 12:12 pm-------29.85- 30.7 39.7----
2024-02-24 12:06 pm-------29.85- 30.7 39.7----
2024-02-24 12:00 pm-------29.85-0.06 30.2 39.7----
2024-02-24 11:54 am-------29.85- 30.0 39.7----
2024-02-24 11:48 am-------29.86-- 39.7----
2024-02-24 11:42 am-------29.86-- 39.7----
2024-02-24 11:36 am-------29.86-- 39.7----
2024-02-24 11:30 am--------- 30.2 39.7----
2024-02-24 11:24 am--------- 29.8 39.7----
2024-02-24 11:18 am-------29.87- 30.4 39.7----
2024-02-24 11:12 am-------29.87- 28.9 39.7----
2024-02-24 11:06 am-------29.87- 28.8 39.7----
2024-02-24 11:00 am-------29.88-0.04 28.9 39.7----
2024-02-24 10:54 am-------29.88- 28.8 39.7----
2024-02-24 10:48 am-------29.88- 28.6 39.7----
2024-02-24 10:42 am-------29.88- 28.4 39.7----
2024-02-24 10:36 am-------29.88- 27.9 39.7----
2024-02-24 10:30 am-------29.88- 27.7-----
2024-02-24 10:24 am-------29.88- 27.7-----
2024-02-24 10:18 am-------29.89- 25.5 39.7----
2024-02-24 10:12 am-------29.89- 25.3 39.7----
2024-02-24 10:06 am-------29.89- 25.3 39.7----
2024-02-24 10:00 am-------29.89-0.03- 39.7----
2024-02-24 09:54 am-------29.89-- 39.7----
2024-02-24 09:48 am-------29.89- 25.3 39.7----
2024-02-24 09:42 am-------29.90- 25.3 39.7----
2024-02-24 09:36 am-------29.90- 25.2 39.7----
2024-02-24 09:30 am-------29.90- 25.2 39.7----
2024-02-24 09:24 am-------29.90- 25.3 39.7----
2024-02-24 09:18 am-------29.91- 25.2 39.7----
2024-02-24 09:12 am-------29.91- 25.0 39.7----
2024-02-24 09:06 am-------29.91- 24.8 39.7----
2024-02-24 09:00 am-------29.91-0.01- 39.7----
2024-02-24 08:54 am-------29.91-- 39.7----
2024-02-24 08:48 am-------29.91-- 39.7----
2024-02-24 08:42 am-------29.91-- 39.7----
2024-02-24 08:36 am-------29.91-- 39.7----
2024-02-24 08:30 am-------29.91- 25.3 39.7----
2024-02-24 08:24 am-------29.91- 25.0 39.7----
2024-02-24 08:18 am-------29.91- 25.0 39.7----
2024-02-24 08:12 am-------29.91- 25.0 39.7----
2024-02-24 08:06 am-------29.91- 25.2 39.7----
2024-02-24 08:00 am-------29.91-0.01 25.2 39.7----
2024-02-24 07:54 am-------29.92- 25.2 39.7----
2024-02-24 07:48 am-------29.92-- 39.7----
2024-02-24 07:42 am-------29.92-- 39.7----
2024-02-24 07:36 am-------29.92-- 39.7----
2024-02-24 07:30 am-------29.92-- 39.7----
2024-02-24 07:24 am-------29.92-- 39.7----
2024-02-24 07:18 am--------- 24.8 39.7----
2024-02-24 07:12 am--------- 25.0 39.7----
2024-02-24 07:06 am--------- 25.0 39.7----
2024-02-24 07:00 am-------29.92-- 39.7----
2024-02-24 06:54 am-------29.92-- 39.7----
2024-02-24 06:48 am-------29.92-- 39.7----
2024-02-24 06:42 am-------29.92-- 39.7----
2024-02-24 06:36 am-------29.92-- 39.7----
2024-02-24 06:30 am-------29.92- 25.9 39.7----
2024-02-24 06:24 am-------29.92- 26.1 39.7----
2024-02-24 06:18 am-------29.92- 26.2 39.7----
2024-02-24 06:12 am-------29.92- 25.7 39.7----
2024-02-24 06:06 am-------29.92- 25.9 39.7----
2024-02-24 06:00 am-------29.92-0.02 26.6 39.7----
2024-02-24 05:54 am-------29.92- 26.8 39.7----
2024-02-24 05:48 am-------29.92-- 39.7----
2024-02-24 05:42 am-------29.92-- 39.7----
2024-02-24 05:36 am-------29.92-- 39.7----
2024-02-24 05:30 am-------29.92- 27.5 39.7----
2024-02-24 05:24 am-------29.92- 27.5 39.7----
2024-02-24 05:18 am-------29.93- 27.7 39.7----
2024-02-24 05:12 am-------29.93- 28.0 39.7----
2024-02-24 05:06 am-------29.93- 28.0 39.7----
2024-02-24 05:00 am-------29.93+0.00 28.2 39.7----
2024-02-24 04:54 am-------29.93- 28.2 39.7----
2024-02-24 04:48 am---------- 39.7----
2024-02-24 04:42 am---------- 39.7----
2024-02-24 04:36 am---------- 39.7----
2024-02-24 04:30 am-------29.93-------
2024-02-24 04:24 am-------29.93-------
2024-02-24 04:18 am-------29.93-------
2024-02-24 04:12 am-------29.93-------
2024-02-24 04:06 am-------29.94-------
2024-02-24 04:00 am--------- 28.9 39.7----
2024-02-24 03:54 am--------- 28.9 39.7----
2024-02-24 03:48 am-------29.93- 28.9 39.7----
2024-02-24 03:42 am-------29.93- 29.1 39.7----
2024-02-24 03:36 am-------29.93- 29.3 39.7----
2024-02-24 03:30 am-------29.93-------
2024-02-24 03:24 am-------29.93-------
2024-02-24 03:18 am-------29.93-- 39.7----
2024-02-24 03:12 am-------29.93-- 39.7----
2024-02-24 03:06 am-------29.93-- 39.7----
2024-02-24 03:00 am-------29.93+0.01 29.7 39.7----
2024-02-24 02:54 am-------29.94- 29.7 39.7----
2024-02-24 02:48 am-------29.94-- 39.7----
2024-02-24 02:42 am-------29.94-- 39.7----
2024-02-24 02:36 am-------29.94-- 39.7----
2024-02-24 02:30 am-------29.94- 29.8 39.7----
2024-02-24 02:24 am-------29.94- 30.0 39.7----
2024-02-24 02:18 am-------29.94- 30.2 39.7----
2024-02-24 02:12 am-------29.94- 30.0 39.7----
2024-02-24 02:06 am-------29.94- 30.0 39.7----
2024-02-24 02:00 am-------29.93-- 39.7----
2024-02-24 01:54 am-------29.93-- 39.7----
2024-02-24 01:48 am-------29.93- 30.2 39.7----
2024-02-24 01:42 am-------29.93- 30.2 39.7----
2024-02-24 01:36 am-------29.93- 30.2 39.7----
2024-02-24 01:30 am-------29.93-- 39.7----
2024-02-24 01:24 am-------29.93-- 39.7----
2024-02-24 01:18 am-------29.93- 30.2 39.7----
2024-02-24 01:12 am-------29.93- 30.4 39.7----
2024-02-24 01:06 am-------29.93- 30.2 39.7----
2024-02-24 01:00 am-------29.93+0.01- 39.7----
2024-02-24 12:54 am-------29.93-- 39.7----
2024-02-24 12:48 am-------29.93-- 39.7----
2024-02-24 12:42 am-------29.93-- 39.7----
2024-02-24 12:36 am-------29.93-- 39.7----
2024-02-24 12:30 am-------29.93-- 39.7----
2024-02-24 12:24 am-------29.93-- 39.7----
2024-02-24 12:18 am-------29.92- 30.0 39.7----
2024-02-24 12:12 am-------29.92- 29.7 39.7----
2024-02-24 12:06 am-------29.92- 29.8 39.7----
2024-02-24 12:00 am-------29.92+0.00 30.0 39.7----
2024-02-23 11:54 pm-------29.92- 30.0 39.7----
2024-02-23 11:48 pm-------29.92- 30.4 39.7----
2024-02-23 11:42 pm-------29.92- 30.4 39.7----
2024-02-23 11:36 pm-------29.92- 30.4 39.7----
2024-02-23 11:30 pm-------29.92-- 39.7----
2024-02-23 11:24 pm-------29.92-- 39.7----
2024-02-23 11:18 pm-------29.92-- 39.7----
2024-02-23 11:12 pm-------29.92-- 39.7----
2024-02-23 11:06 pm-------29.93-- 39.7----
2024-02-23 11:00 pm---------- 39.7----
2024-02-23 10:54 pm---------- 39.7----
2024-02-23 10:48 pm-------29.93-- 39.7----
2024-02-23 10:42 pm-------29.92-- 39.7----
2024-02-23 10:36 pm-------29.93-- 39.7----
2024-02-23 10:30 pm-------29.93-------
2024-02-23 10:24 pm-------29.92-------
2024-02-23 10:18 pm-------29.92- 30.7 39.7----
2024-02-23 10:12 pm-------29.92- 30.2 39.7----
2024-02-23 10:06 pm-------29.92- 30.0 39.7----
2024-02-23 10:00 pm-------29.92+0.02 29.8 39.7----
2024-02-23 09:54 pm-------29.92- 29.8 39.7----
2024-02-23 09:48 pm-------29.93-- 39.7----
2024-02-23 09:42 pm-------29.93-- 39.7----
2024-02-23 09:36 pm-------29.93-- 39.7----
2024-02-23 09:30 pm-------29.93- 30.7 39.7----
2024-02-23 09:24 pm-------29.93- 30.9 39.7----
2024-02-23 09:18 pm-------29.93-- 39.7----
2024-02-23 09:12 pm-------29.93-- 39.7----
2024-02-23 09:06 pm-------29.93-- 39.7----
2024-02-23 09:00 pm-------29.93+0.02 31.3 39.7----
2024-02-23 08:54 pm-------29.93- 31.6 39.9----
2024-02-23 08:48 pm-------29.93-- 39.9----
2024-02-23 08:42 pm-------29.93-- 39.9----
2024-02-23 08:36 pm-------29.92-- 39.9----
2024-02-23 08:30 pm-------29.92- 33.1 39.9----
2024-02-23 08:24 pm-------29.92- 33.3 39.9----
2024-02-23 08:18 pm-------29.92- 33.4 39.9----
2024-02-23 08:12 pm-------29.91- 34.0 39.9----
2024-02-23 08:06 pm-------29.91- 35.2 39.9----
2024-02-23 08:00 pm-------29.91+0.00- 39.9----
2024-02-23 07:54 pm-------29.91-- 39.9----
2024-02-23 07:48 pm-------29.91- 35.2 39.9----
2024-02-23 07:42 pm-------29.91- 35.2 39.9----
2024-02-23 07:36 pm-------29.91- 35.4 39.9----
2024-02-23 07:30 pm-------29.91- 35.4 39.9----
2024-02-23 07:24 pm-------29.91- 35.6 39.9----
2024-02-23 07:18 pm-------29.91- 35.4 39.9----
2024-02-23 07:12 pm-------29.91- 35.8 39.9----
2024-02-23 07:06 pm-------29.91- 35.8 39.9----
2024-02-23 07:00 pm-------29.91-0.01 36.0-----
2024-02-23 06:54 pm-------29.90- 36.1-----
2024-02-23 06:48 pm-------29.90-- 39.9----
2024-02-23 06:42 pm-------29.90-- 39.9----
2024-02-23 06:36 pm-------29.90-- 39.9----
2024-02-23 06:30 pm-------29.90- 36.3 39.9----
2024-02-23 06:24 pm-------29.90- 36.3 39.9----
2024-02-23 06:18 pm-------29.90- 36.3 39.9----
2024-02-23 06:12 pm-------29.90- 36.5 39.9----
2024-02-23 06:06 pm-------29.90- 36.5 39.9----
2024-02-23 06:00 pm-------29.90-0.01 36.7 39.9----
2024-02-23 05:54 pm-------29.90- 36.9 39.9----
2024-02-23 05:48 pm-------29.90- 37.0 39.9----
2024-02-23 05:42 pm-------29.90- 37.0 39.9----
2024-02-23 05:36 pm-------29.90- 37.0 39.9----
2024-02-23 05:30 pm-------29.91- 37.2 39.9----
2024-02-23 05:24 pm-------29.90- 37.2 39.9----
2024-02-23 05:18 pm-------29.90- 37.2 39.7----
2024-02-23 05:12 pm-------29.90- 37.4 39.7----
2024-02-23 05:06 pm-------29.90- 37.6 39.7----
2024-02-23 05:00 pm-------29.91-0.01 37.8 39.7----
2024-02-23 04:54 pm-------29.91- 37.8 39.7----
2024-02-23 04:48 pm-------29.91- 37.9 39.7----
2024-02-23 04:42 pm-------29.91- 38.1 39.7----
2024-02-23 04:36 pm-------29.92- 38.1 39.7----
2024-02-23 04:30 pm-------29.92-------
2024-02-23 04:24 pm-------29.92-------
2024-02-23 04:18 pm-------29.92-- 39.7----
2024-02-23 04:12 pm-------29.92-- 39.7----
2024-02-23 04:06 pm-------29.92-- 39.7----
2024-02-23 04:00 pm-------29.92+0.00- 39.7----
2024-02-23 03:54 pm-------29.91-- 39.7----
2024-02-23 03:48 pm-------29.91-- 39.7----
2024-02-23 03:42 pm-------29.91-- 39.7----
2024-02-23 03:36 pm-------29.91-- 39.7----
2024-02-23 03:30 pm-------29.91-- 39.7----
2024-02-23 03:24 pm-------29.91-- 39.7----
2024-02-23 03:18 pm-------29.91-- 39.7----
2024-02-23 03:12 pm-------29.91-- 39.7----
2024-02-23 03:06 pm-------29.91-- 39.7----
2024-02-23 03:00 pm-------29.91+0.00------
2024-02-23 02:54 pm-------29.92-------
2024-02-23 02:48 pm-------29.92- 38.8 39.7----
2024-02-23 02:42 pm-------29.92- 39.0 39.7----
2024-02-23 02:36 pm-------29.92- 39.0 39.7----
2024-02-23 02:30 pm-------29.92- 39.0 39.7----
2024-02-23 02:24 pm-------29.92- 39.0 39.7----
2024-02-23 02:18 pm-------29.92-- 39.7----
2024-02-23 02:12 pm-------29.92-- 39.7----
2024-02-23 02:06 pm-------29.92-- 39.7----
2024-02-23 02:00 pm-------29.92+0.02 38.8 39.7----
2024-02-23 01:54 pm-------29.92- 38.8 39.7----
2024-02-23 01:48 pm-------29.92- 38.8 39.7----
2024-02-23 01:42 pm-------29.92- 38.8 39.7----
2024-02-23 01:36 pm-------29.92- 38.8 39.7----
2024-02-23 01:30 pm-------29.92- 38.8 39.7----
2024-02-23 01:24 pm-------29.92- 38.7 39.7----
2024-02-23 01:18 pm-------29.92- 38.7 39.7----
2024-02-23 01:12 pm-------29.92- 38.7 39.7----
2024-02-23 01:06 pm-------29.92- 38.7 39.7----
2024-02-23 01:00 pm-------29.92+0.04 38.5 39.7----
2024-02-23 12:54 pm-------29.92- 38.5 39.7----